TimeMDT,TemperatureF,Dew PointF,Humidity,Sea Level PressureIn,VisibilityMPH,Wind Direction,Wind SpeedMPH,Gust SpeedMPH,PrecipitationIn,Events,Conditions,WindDirDegrees,DateUTC
12:52 AM,45.0,14.0,29,30.01,10.0,NNE,6.9,-,N/A,,Clear,30,2012-10-06 06:52:00
1:52 AM,45.0,14.0,29,30.02,10.0,NNE,6.9,-,N/A,,Clear,30,2012-10-06 07:52:00
2:52 AM,46.9,12.9,25,30.02,10.0,North,4.6,-,N/A,,Clear,10,2012-10-06 08:52:00
3:52 AM,45.0,12.9,27,30.02,10.0,ENE,3.5,-,N/A,,Clear,60,2012-10-06 09:52:00
4:52 AM,46.9,10.9,23,30.02,10.0,North,15.0,-,N/A,,Clear,350,2012-10-06 10:52:00
5:52 AM,46.0,10.9,24,30.04,10.0,North,13.8,-,N/A,,Clear,350,2012-10-06 11:52:00
6:52 AM,43.0,12.0,28,30.08,10.0,NNE,8.1,-,N/A,,Clear,20,2012-10-06 12:52:00
7:52 AM,37.0,12.0,36,30.12,10.0,NE,3.5,-,N/A,,Clear,40,2012-10-06 13:52:00
8:52 AM,46.0,14.0,28,30.11,10.0,NNE,8.1,-,N/A,,Clear,20,2012-10-06 14:52:00
9:52 AM,53.1,12.9,20,30.09,10.0,North,13.8,-,N/A,,Clear,10,2012-10-06 15:52:00
10:52 AM,55.9,14.0,19,30.08,10.0,North,13.8,-,N/A,,Clear,350,2012-10-06 16:52:00
11:52 AM,60.1,15.1,17,30.06,10.0,North,17.3,-,N/A,,Clear,10,2012-10-06 17:52:00
12:52 PM,62.1,16.0,17,30.06,10.0,North,15.0,-,N/A,,Clear,350,2012-10-06 18:52:00
1:52 PM,64.0,15.1,15,30.04,10.0,North,15.0,23.0,N/A,,Clear,10,2012-10-06 19:52:00
2:52 PM,64.9,14.0,14,30.00,10.0,NNE,10.4,-,N/A,,Clear,20,2012-10-06 20:52:00
3:52 PM,64.9,14.0,14,29.99,10.0,North,11.5,-,N/A,,Clear,10,2012-10-06 21:52:00
4:52 PM,66.0,12.9,13,29.96,10.0,NNE,8.1,-,N/A,,Clear,30,2012-10-06 22:52:00
5:52 PM,64.0,14.0,14,29.96,10.0,North,12.7,-,N/A,,Clear,10,2012-10-06 23:52:00
6:52 PM,60.1,14.0,16,29.98,10.0,NNE,11.5,-,N/A,,Clear,20,2012-10-07 00:52:00
7:52 PM,53.1,14.0,21,30.03,10.0,North,6.9,-,N/A,,Clear,10,2012-10-07 01:52:00
8:52 PM,50.0,14.0,24,30.03,10.0,NNW,10.4,-,N/A,,Clear,330,2012-10-07 02:52:00
9:52 PM,50.0,14.0,24,30.01,10.0,NNW,10.4,-,N/A,,Clear,330,2012-10-07 03:52:00
10:52 PM,50.0,12.9,23,30.02,10.0,NNW,13.8,-,N/A,,Clear,340,2012-10-07 04:52:00
11:52 PM,48.0,10.9,22,30.03,10.0,NNW,13.8,-,N/A,,Clear,340,2012-10-07 05:52:00